Location: ??
(31.9467°N, 34.8903°E)
Time: 18:15:00
(UTC+00:00)

Cosmos 1076 Rocket - Pass Details

Date: 29 October 2020
Orbit: 589 x 613 km, 82.5° (Epoch: 30 November)

Event Time Altitude Azimuth Distance (km) Brightness Sun altitude
Rises 16:54:24 0° 346° (NNW) 2,826 7.1 -26.2°
Reaches altitude 10° 16:56:40 10° 340° (NNW) 1,923 6.3 -26.7°
Maximum altitude 17:00:43 45° 267° (W) 813 4.5 -27.6°
Drops below altitude 10° 17:04:46 10° 195° (SSW) 1,921 6.2 -28.4°
Sets 17:07:02 0° 189° (S) 2,823 7.0 -28.9°
